Вернуться в каталог

OPS 6564

VELA 6

АктивенВоенныеHEO
NORAD 1459·PAYLOAD·🇺🇸 United States

Запущен Jul 20, 1965 с Cape Canaveral Space Force Station

Loading…

Ближайшие Пролёты (ближайшие 24 часа)

TLE

УстаревшееSource: Space-Track

Эпоха: Aug 20, 2026, 02:15 UTC

1 01459U 65058B   26232.09412380 -.00001187  00000-0  00000-0 0  9993
2 01459  41.6182 357.8346 4847933  96.8287   1.9515  0.21366342  9374

Отслеживайте OPS 6564 в реальном времени с AllMySat

Download on the App Store